Location: Unspecified
(51.0950°N, 12.9690°E)
Time: 06:31:40
(UTC+00:00)

ATLAS 3B R/B - Pass Details

Date: 30 May 2022
Orbit: 976 x 1218 km, 63.8° (Epoch: 20 June)

Event Time Altitude Azimuth Distance (km) Brightness Sun altitude
Rises 21:29:57 0° 313° (NW) 3,976 7.0 -14.1°
Reaches altitude 10° 21:32:57 10° 303° (WNW) 3,049 5.9 -14.2°
Maximum altitude 21:39:02 29° 247° (WSW) 2,003 4.1 -14.6°
Enters shadow 21:44:28 13° 194° (SSW) 2,907 4.5 -14.9°
